Wetbulb
59.38 60.12 60.14 60.16 60.04 59.85 59.76 59.77 59.82 59.81 60.15 60.40 60.64 60.64 60.50 60.01 59.13 60.38 61.10 64.03 62.21 67.64 66.69 60.39 61.87 61.14 60.80 57.80 59.59 60.92 55.30 54.56 57.16 57.27 59.20 62.99 61.86 64.29 65.36 63.02 63.41 64.03 66.19 69.08 70.88
58.84 59.48 59.83 59.74 59.65 59.39 59.28 59.33 59.46 59.33 59.56 59.86 60.16 60.28 59.97 59.72 59.28 60.45 66.85 68.22 67.50 68.41 60.83 58.52 58.11 58.49 56.75 56.60 57.44 56.96 54.92 56.32 59.57 59.94 60.68 62.48 62.98 63.23 63.31 63.08 62.50 65.89 68.89 70.08 69.86
58.24 59.18 59.52 59.47 59.41 58.95 59.02 59.02 59.07 59.20 59.33 59.43 59.83 60.01 60.00 59.74 60.81 61.27 66.16 67.72 67.01 65.96 60.35 60.82 59.12 57.54 55.27 56.55 56.97 57.79 54.70 58.56 58.87 59.56 61.44 63.07 63.25 63.48 63.43 61.11 63.49 63.53 67.19 68.27 67.91
57.99 58.54 59.22 59.18 59.00 58.84 58.86 58.94 58.95 59.47 59.18 59.20 59.56 60.51 59.79 61.04 55.38 59.59 67.41 67.37 67.59 60.71 60.80 59.48 57.16 54.80 54.11 53.62 57.45 55.52 58.21 59.27 58.93 60.04 60.61 61.45 64.18 62.15 62.95 63.37 65.60 65.51 67.96 67.46 67.20
58.08 58.39 58.71 58.71 58.49 58.42 58.54 58.69 58.56 58.55 58.55 58.86 59.54 60.84 60.36 60.32 59.93 61.94 67.77 66.15 58.78 59.60 59.73 56.81 54.58 54.25 52.44 54.67 56.43 55.83 56.94 59.57 59.59 59.21 60.93 63.56 62.88 62.23 62.00 65.18 65.71 65.87 66.46 66.31 66.59
57.62 57.87 58.07 58.20 58.16 58.10 57.93 57.60 57.39 57.64 58.10 58.74 60.29 59.08 61.23 56.38 64.87 61.02 60.72 58.98 58.70 59.14 57.47 56.92 54.69 55.83 54.01 54.59 55.38 57.44 57.16 58.69 59.31 59.20 59.94 61.19 62.17 63.20 63.23 65.43 64.43 64.02 64.43 65.25 65.44
57.61 57.60 57.78 57.91 57.98 57.83 57.57 56.92 56.68 57.23 58.38 59.21 60.77 60.80 58.89 57.47 64.94 62.05 60.89 58.89 59.69 58.28 56.02 57.56 57.34 55.06 55.21 53.37 56.64 56.73 55.12 57.13 58.22 58.63 58.61 60.01 59.28 60.43 64.38 65.02 63.67 63.43 63.90 64.19 65.17
57.65 57.35 57.51 57.63 57.64 57.53 57.45 56.82 56.62 57.49 59.09 60.27 60.42 60.90 56.68 62.66 64.00 62.21 62.16 60.59 60.42 59.40 58.01 58.91 58.67 56.74 55.48 57.09 55.23 53.20 54.69 51.56 56.91 57.69 59.52 59.16 53.75 60.28 65.21 64.08 63.12 63.37 63.60 63.78 64.30
57.54 57.05 57.22 57.41 57.32 57.35 56.89 56.15 56.70 58.28 59.86 60.85 60.34 59.91 55.44 62.75 58.69 63.82 63.60 60.52 59.22 58.35 58.26 58.88 57.82 55.46 55.63 52.05 51.00 52.26 48.69 51.21 53.95 58.18 58.67 58.39 55.55 61.13 63.00 63.95 63.42 63.59 63.71 63.67 64.72
57.42 56.94 57.01 56.95 56.97 56.40 55.67 55.07 58.79 56.63 60.44 61.81 61.64 57.53 59.79 57.23 58.75 62.62 62.95 60.44 56.97 55.58 54.55 54.85 54.07 52.05 51.89 51.06 46.17 48.26 48.38 50.96 52.90 56.74 57.85 57.62 57.36 61.79 63.53 63.37 63.43 63.78 64.02 64.16 64.96
57.56 57.18 56.73 56.58 56.43 55.57 55.93 59.09 56.71 56.75 59.04 56.54 55.95 54.10 56.50 59.41 62.73 60.95 61.37 58.23 57.07 53.89 49.90 53.16 49.73 47.83 50.24 52.12 52.04 51.29 51.00 51.25 54.26 57.27 56.90 56.72 57.52 60.61 61.94 62.60 62.57 63.43 64.12 64.79 65.33
57.56 57.08 56.83 56.48 56.14 55.58 56.80 56.26 54.55 54.99 50.00 55.15 55.49 56.19 58.44 59.41 54.85 58.60 61.19 55.31 53.55 49.67 52.10 51.95 48.56 52.67 53.72 53.00 51.53 50.80 49.62 50.09 54.01 56.42 56.17 56.69 56.47 59.30 62.13 62.25 62.51 63.61 64.44 64.80 66.24
56.66 56.63 56.60 56.26 55.64 57.51 58.51 56.28 57.40 56.68 50.94 53.40 56.34 54.87 56.21 57.19 54.21 55.21 58.98 56.44 53.59 51.64 51.12 50.21 52.94 54.52 53.27 51.95 50.73 50.80 49.73 50.41 51.21 54.75 55.64 55.16 53.95 56.57 60.02 62.06 62.86 63.66 64.73 65.34 66.16
56.74 56.55 56.28 55.42 54.97 60.28 57.11 58.98 58.10 58.42 48.28 51.49 53.45 54.36 55.24 56.24 52.79 58.38 59.47 57.40 55.33 51.93 52.32 52.02 54.72 53.16 52.12 51.03 51.91 48.50 52.09 51.61 51.62 51.31 48.41 54.63 46.21 53.69 57.19 59.99 61.46 61.98 62.84 63.73 64.92
56.63 56.90 56.42 55.18 56.81 56.76 58.73 59.70 58.21 57.87 41.09 53.50 53.13 58.08 55.82 53.18 53.92 54.94 59.78 57.86 53.91 53.71 53.86 51.23 52.21 52.15 50.35 51.36 52.93 50.48 53.47 51.55 50.68 49.25 49.94 51.22 48.54 51.77 56.62 56.68 58.89 60.66 60.95 61.42 62.62
56.39 56.79 56.14 58.28 58.47 60.47 60.98 59.44 56.35 46.70 41.34 51.39 54.20 51.99 51.00 52.43 53.03 55.53 56.17 58.47 58.04 54.54 54.70 53.22 55.38 53.54 52.22 53.42 53.44 53.75 51.79 51.36 51.09 49.41 44.48 48.51 48.95 49.32 52.94 55.35 57.51 59.29 59.26 60.55 60.45
55.96 56.40 55.75 59.92 57.96 61.79 59.91 55.95 44.64 41.83 51.10 50.54 51.07 51.92 50.39 49.45 51.61 53.31 52.81 52.69 51.25 49.10 50.30 51.64 51.95 52.71 53.73 50.82 53.09 51.88 50.37 44.97 43.96 44.05 43.27 50.44 47.96 50.35 54.88 57.02 57.68 58.29 58.47 60.33 61.75
55.55 54.72 56.43 59.14 61.10 61.50 57.74 50.26 40.29 47.07 48.73 52.83 52.31 51.25 48.26 50.16 51.06 52.38 51.98 50.76 53.31 52.84 50.50 48.14 46.63 52.05 53.37 51.42 50.11 50.76 50.74 46.17 42.44 43.56 46.36 51.92 47.39 50.54 56.54 57.68 58.07 58.60 58.91 59.98 60.88
54.98 57.26 57.63 60.59 61.77 60.36 53.63 43.82 43.74 48.50 50.80 50.99 51.27 49.15 48.99 49.88 50.18 51.15 51.18 50.80 52.74 53.61 49.57 49.05 49.28 54.40 53.60 53.06 52.63 50.62 48.90 52.69 48.70 49.45 46.58 49.08 52.28 55.34 56.03 56.26 57.12 57.40 59.01 59.09 60.12
55.57 56.43 56.93 61.19 62.22 57.55 50.26 43.83 47.29 51.06 50.62 51.35 48.14 50.36 48.25 49.77 49.22 49.85 49.72 52.82 52.07 54.25 55.33 52.89 48.38 52.55 53.03 53.69 53.29 51.92 53.57 48.56 49.40 43.52 41.81 46.74 49.05 49.86 54.92 55.54 56.58 56.96 58.44 61.85 64.72
54.91 53.30 58.18 61.09 60.61 53.91 45.55 46.88 48.81 51.74 51.42 49.67 50.04 50.56 50.96 49.92 50.27 49.77 49.90 52.12 53.45 53.28 54.62 53.37 52.30 50.92 52.46 50.43 49.63 50.31 49.11 50.84 51.72 49.93 44.24 43.61 47.40 56.42 55.42 56.48 56.78 57.33 59.16 64.25 66.38
53.63 49.36 59.44 60.87 50.47 50.32 47.26 49.72 50.11 50.34 52.12 50.56 52.77 52.77 52.57 52.24 50.53 50.42 49.85 53.72 55.48 54.58 50.96 53.86 53.17 48.56 50.17 54.23 54.60 53.98 52.51 52.21 47.90 47.16 48.87 48.37 47.39 56.74 57.98 57.83 59.90 59.71 61.39 62.50 66.86
51.03 52.04 59.73 58.39 45.79 46.69 50.17 49.95 50.48 49.63 50.06 49.57 50.92 53.46 55.13 53.29 50.47 53.50 54.77 56.91 56.27 55.38 54.85 55.39 51.38 46.86 48.43 52.00 54.45 51.74 52.51 52.53 53.38 53.96 48.85 46.31 48.49 57.33 59.00 59.51 60.69 61.02 63.57 64.51 66.88
52.01 47.06 53.33 54.35 52.87 49.63 48.84 48.56 48.35 50.85 50.80 51.33 51.66 53.67 53.48 52.95 54.83 53.00 54.16 56.01 56.53 57.33 58.65 60.16 54.17 51.28 45.81 49.44 53.21 51.41 52.52 53.05 53.25 48.61 48.86 49.07 50.09 55.07 57.28 59.15 60.80 61.87 60.13 65.64 67.21
51.36 49.70 51.46 47.02 49.19 50.63 51.80 51.11 47.89 48.15 51.00 52.08 51.15 51.79 52.48 51.15 52.01 52.36 54.79 54.79 55.91 54.03 56.13 57.58 50.64 51.81 51.73 52.62 53.20 51.35 51.92 51.80 51.11 51.83 49.14 50.96 52.42 55.88 58.52 59.59 60.95 63.11 63.13 64.74 65.60
49.48 49.94 53.02 51.45 51.77 50.29 49.20 50.53 48.51 49.70 50.01 49.34 49.65 52.04 53.64 52.62 53.00 51.39 54.48 54.15 53.08 53.85 55.63 57.11 50.90 51.43 49.34 51.47 50.69 48.50 50.22 50.59 50.91 51.00 51.18 51.72 53.16 59.34 60.76 61.73 63.22 65.36 66.41 66.20 65.62
54.86 55.36 54.17 49.59 50.91 49.16 49.64 50.31 50.81 51.28 52.21 52.04 51.84 52.00 52.48 54.62 57.19 58.31 56.71 54.83 57.19 55.06 55.33 54.98 52.68 50.50 46.35 50.22 49.41 46.21 50.36 50.70 51.65 54.48 54.99 51.83 54.86 58.09 58.72 61.82 63.69 65.12 64.94 64.95 65.08
MSLP
1018.11 1017.82 1017.52 1017.17 1016.56 1015.93 1015.32 1014.75 1014.15 1013.57 1013.20 1012.89 1012.51 1012.11 1011.73 1011.44 1011.20 1010.69 1008.10 1006.03 1006.12 1006.37 1006.79 1005.75 1005.62 1004.73 1004.22 1003.31 1002.40 1001.65 1000.75 998.80 997.67 997.14 997.99 998.56 998.97 1000.28 1001.31 1002.06 1002.96 1003.88 1003.86 1005.88 1007.23
1018.03 1017.75 1017.22 1016.96 1016.40 1015.82 1015.29 1014.73 1013.97 1013.36 1012.89 1012.55 1012.27 1011.88 1011.57 1011.45 1010.39 1008.23 1006.31 1005.86 1005.76 1006.28 1006.39 1005.19 1004.61 1004.17 1003.52 1002.60 1001.78 1001.33 1000.15 998.49 997.52 997.18 997.73 998.02 998.96 999.96 1000.96 1001.72 1003.04 1004.10 1005.03 1006.10 1007.15
1018.03 1017.54 1017.07 1016.76 1016.29 1015.52 1015.07 1014.43 1013.71 1013.08 1012.70 1012.30 1012.03 1011.70 1011.52 1011.35 1009.10 1005.61 1005.89 1006.02 1006.04 1006.19 1005.42 1004.49 1003.95 1003.48 1002.94 1002.03 1001.06 1000.48 999.44 998.05 997.64 997.96 997.73 998.36 999.15 999.88 1000.25 1001.33 1002.48 1003.91 1005.29 1006.35 1006.86
1018.02 1017.55 1017.10 1016.68 1016.07 1015.38 1014.92 1014.10 1013.51 1012.88 1012.36 1012.01 1011.80 1011.47 1011.37 1010.64 1007.06 1005.45 1005.83 1006.10 1006.23 1006.15 1005.79 1004.39 1003.70 1003.04 1002.45 1001.47 1000.40 1000.01 999.08 998.34 997.85 998.23 998.11 997.72 998.69 999.61 1000.12 1001.38 1002.66 1003.82 1005.06 1006.13 1006.68
1017.96 1017.69 1017.10 1016.64 1016.00 1015.15 1014.53 1013.81 1013.21 1012.73 1012.14 1011.70 1011.63 1011.34 1010.99 1008.55 1005.41 1005.62 1005.77 1006.12 1006.22 1006.32 1005.31 1004.05 1003.58 1003.11 1002.26 1001.14 1000.23 999.72 999.02 998.37 998.14 998.41 998.17 997.84 998.33 999.01 1000.11 1001.30 1002.92 1004.03 1005.03 1005.90 1006.49
1017.83 1017.24 1016.88 1016.41 1015.84 1015.03 1014.21 1013.35 1012.87 1012.38 1011.86 1011.46 1011.38 1011.33 1009.96 1006.40 1004.11 1005.03 1005.01 1005.68 1005.27 1005.37 1004.38 1003.56 1003.12 1002.88 1002.25 1001.01 1000.09 999.55 999.26 998.43 998.17 998.14 998.24 998.19 998.11 998.95 1000.23 1001.30 1002.78 1004.01 1004.84 1005.58 1006.16
1017.67 1017.20 1016.76 1016.28 1015.55 1014.63 1013.76 1012.93 1012.39 1011.90 1011.59 1011.28 1011.15 1010.78 1008.17 1004.98 1003.34 1004.43 1004.63 1004.85 1004.59 1004.15 1003.46 1003.06 1002.67 1002.34 1002.06 1001.34 1000.44 999.72 999.25 998.87 998.10 998.08 998.16 998.47 998.60 999.06 1000.16 1001.35 1002.45 1003.56 1004.45 1005.19 1005.81
1017.35 1016.96 1016.45 1015.95 1015.18 1014.33 1013.35 1012.43 1011.84 1011.35 1010.96 1010.81 1010.94 1010.05 1006.26 1003.11 1003.14 1003.78 1004.03 1004.02 1003.88 1003.57 1003.19 1002.66 1002.44 1002.22 1001.72 1001.45 1000.69 1000.08 999.53 998.92 998.10 997.97 997.89 998.58 999.06 1000.17 1000.46 1000.73 1002.19 1002.89 1003.74 1004.65 1005.46
1017.18 1016.84 1016.41 1015.67 1014.88 1014.11 1013.32 1012.15 1011.11 1010.54 1010.46 1010.51 1010.28 1008.65 1004.75 1003.58 1003.29 1003.01 1003.20 1003.09 1003.20 1003.40 1003.27 1002.78 1002.80 1002.72 1002.18 1001.74 1000.78 1000.09 999.49 998.78 997.61 997.15 997.55 998.28 999.17 1000.63 1002.23 1000.25 1001.45 1002.41 1003.18 1004.01 1004.85
1017.09 1016.70 1016.09 1015.40 1014.74 1014.09 1013.26 1010.89 1009.52 1010.07 1009.98 1009.47 1008.41 1007.26 1003.94 1002.52 1002.31 1002.65 1002.90 1002.85 1002.99 1003.21 1003.39 1003.41 1003.10 1002.59 1001.97 1001.04 1000.16 999.81 999.61 998.60 997.38 996.87 997.44 997.60 998.22 999.21 999.48 999.67 1000.34 1001.20 1002.35 1003.29 1003.98
1016.67 1016.33 1015.94 1015.40 1014.68 1014.01 1013.15 1010.11 1009.18 1009.07 1008.18 1006.51 1005.11 1004.27 1002.10 1001.68 1001.96 1002.52 1002.69 1002.95 1002.72 1002.98 1002.80 1002.74 1002.28 1001.28 1000.60 1000.33 999.96 999.32 998.63 998.05 997.21 996.51 997.02 997.51 997.78 998.47 999.62 999.05 999.50 999.95 1000.99 1002.00 1002.96
1016.48 1016.21 1015.81 1015.34 1014.67 1013.80 1013.18 1010.31 1009.56 1009.39 1007.58 1005.86 1004.37 1003.46 1002.08 1001.53 1002.05 1002.15 1002.42 1002.59 1002.40 1002.20 1002.33 1001.73 1001.18 1000.30 999.85 999.44 999.31 998.97 998.40 997.93 997.37 996.68 996.94 997.35 997.84 997.44 998.06 998.23 998.82 999.16 999.77 1000.58 1001.56
1016.29 1016.02 1015.71 1015.24 1014.53 1012.99 1010.95 1009.58 1008.93 1008.53 1007.38 1003.91 1002.43 1002.26 1001.84 1001.95 1001.47 1001.31 1001.87 1001.91 1001.54 1001.54 1001.19 1000.62 999.41 999.48 999.23 998.93 998.95 998.80 998.51 998.40 997.91 997.16 997.34 997.78 998.01 997.79 997.43 997.14 998.05 998.49 999.01 999.56 999.99
1016.03 1015.86 1015.59 1015.16 1014.49 1010.63 1009.09 1008.73 1008.37 1008.39 1006.73 1002.14 1000.71 1000.51 1001.14 1001.59 1001.27 1000.48 1001.14 1001.39 1000.78 1000.62 1000.45 999.98 999.33 998.95 998.93 999.26 999.31 999.12 998.91 998.80 998.21 997.81 997.51 997.83 998.10 998.03 997.39 996.91 997.02 997.63 998.43 999.26 998.74
1015.69 1015.63 1015.47 1015.63 1013.65 1010.53 1008.65 1008.49 1008.44 1008.42 1004.89 999.55 999.73 999.35 999.99 1000.65 999.93 1000.17 1000.38 1000.91 1000.31 1000.00 999.92 999.21 999.20 998.92 999.15 999.19 999.26 999.06 998.70 998.50 998.50 998.40 998.21 997.97 997.89 997.34 996.79 996.49 996.46 996.89 997.44 997.53 997.77
1015.30 1015.36 1015.34 1013.23 1013.16 1010.10 1008.53 1008.52 1008.47 1007.21 1002.31 999.12 999.29 999.62 999.82 1000.15 999.88 999.72 1000.01 1000.66 1000.12 999.85 999.54 999.36 999.00 998.99 999.13 999.28 999.15 999.20 999.25 999.23 999.15 998.93 998.41 998.23 997.63 996.63 995.99 995.79 995.78 996.35 996.65 996.90 996.98
1014.94 1015.10 1015.30 1013.25 1010.35 1008.93 1008.88 1008.44 1007.32 1004.17 999.84 998.58 998.71 998.98 999.05 999.49 999.13 999.31 999.99 1000.22 1000.10 1000.04 999.49 999.65 999.14 999.63 999.54 999.33 999.28 999.55 999.79 999.44 999.32 998.83 998.01 997.54 996.78 995.96 995.40 995.03 995.07 995.42 996.10 995.96 996.20
1014.68 1014.88 1013.72 1012.66 1010.68 1009.31 1009.07 1008.11 1005.56 1001.63 999.93 998.13 997.91 998.41 998.77 998.87 998.77 998.91 999.69 999.86 1000.24 999.94 999.34 999.03 998.65 998.63 999.09 999.22 998.76 999.32 999.66 999.35 998.59 998.08 997.31 996.63 995.69 994.79 994.16 994.34 995.05 995.33 995.78 995.99 995.99
1014.70 1013.79 1012.59 1010.65 1010.39 1009.57 1008.79 1006.64 1003.90 1001.39 999.56 998.43 998.28 997.94 997.98 998.26 998.65 998.78 999.25 999.46 999.44 999.79 999.59 998.55 997.74 997.54 998.60 999.23 999.30 998.95 999.04 999.38 999.22 998.76 998.02 997.02 995.41 994.33 994.06 994.27 994.60 995.32 995.74 995.59 995.72
1013.75 1012.00 1009.89 1008.94 1008.63 1008.94 1007.96 1005.58 1003.21 1001.35 1000.80 999.71 998.71 998.41 997.77 997.47 998.05 998.23 998.54 998.68 998.75 998.95 999.48 999.22 998.90 998.51 998.86 999.51 999.32 999.14 999.04 999.16 999.13 999.21 998.63 997.49 996.16 995.61 994.70 994.51 994.89 995.29 995.39 995.64 996.07
1013.58 1010.20 1007.34 1007.23 1008.10 1008.05 1006.33 1004.77 1003.33 1002.18 1001.21 1000.89 999.80 998.98 997.79 997.31 997.90 997.84 997.91 998.17 998.44 998.67 999.38 999.84 1000.02 999.41 999.46 999.63 999.16 999.32 999.42 999.58 999.59 999.78 999.09 998.10 996.94 996.09 996.23 996.06 995.95 996.07 996.00 996.53 997.00
1011.89 1008.41 1005.22 1006.40 1007.35 1006.59 1005.42 1004.39 1002.94 1001.75 1001.45 1001.39 1000.64 999.85 998.43 997.98 997.58 997.76 997.87 998.14 998.89 999.51 1000.14 1000.51 1000.70 1000.27 999.59 999.09 999.12 999.03 999.07 999.47 999.72 1000.27 999.79 999.12 997.65 997.27 997.09 996.84 996.91 996.83 996.90 996.93 997.34
1010.41 1007.60 1005.90 1006.02 1005.76 1005.14 1004.71 1003.63 1002.70 1002.00 1001.66 1001.34 1000.78 999.99 999.06 998.52 998.29 998.44 998.86 999.64 999.98 1000.14 1001.21 1001.15 1001.50 1001.13 1000.39 1000.14 999.82 999.61 999.67 999.97 1000.34 1000.80 1000.72 999.95 998.85 998.02 997.91 998.47 998.58 998.67 998.64 998.98 998.82
1010.26 1007.34 1006.13 1006.09 1005.42 1004.32 1003.58 1003.02 1002.23 1002.12 1001.90 1001.35 1000.75 1000.08 999.81 999.01 998.61 1000.30 1000.17 1000.39 1000.69 1001.07 1002.09 1002.02 1001.79 1001.77 1002.03 1001.50 1001.94 1001.00 1000.47 1000.27 1000.55 1000.99 1000.57 1000.05 999.58 999.63 999.96 1000.25 1000.28 1001.23 1001.87 1001.74 1001.11
1010.64 1007.17 1006.96 1005.33 1005.03 1004.38 1003.62 1002.33 1002.13 1002.16 1002.25 1001.48 1001.08 1000.69 1000.19 999.78 999.15 1000.33 1001.09 1001.10 1001.31 1001.98 1002.31 1002.53 1002.52 1002.28 1001.89 1001.87 1001.80 1001.92 1001.55 1001.40 1001.30 1001.49 1000.98 1000.78 1001.03 1001.86 1002.12 1001.71 1001.58 1002.30 1004.22 1004.50 1004.56
1010.34 1007.27 1006.23 1004.54 1004.36 1004.09 1003.23 1002.48 1001.92 1001.79 1001.91 1001.49 1001.43 1001.06 1000.35 1000.04 999.82 999.86 1000.33 1001.47 1001.40 1002.38 1002.47 1003.23 1003.09 1002.98 1002.58 1002.22 1001.85 1001.36 1001.05 1001.10 1001.07 1001.21 1001.32 1001.92 1003.08 1003.16 1003.10 1002.88 1002.68 1003.32 1003.98 1004.29 1004.54
1009.88 1008.46 1006.60 1005.07 1003.93 1003.48 1002.88 1002.82 1001.99 1001.47 1001.53 1001.78 1001.61 1000.96 1000.37 1000.03 1000.38 1001.02 1001.96 1002.21 1002.21 1002.32 1002.60 1003.39 1003.44 1003.46 1002.92 1002.50 1001.88 1001.27 1001.42 1001.41 1001.47 1002.16 1002.88 1003.80 1004.85 1004.78 1004.52 1004.56 1004.62 1004.73 1005.31 1005.96 1006.45
Wind_Speed
13 13 14 15 16 17 18 19 19 19 17 16 16 14 12 11 10 7 10 5 9 14 1 10 13 14 13 16 18 20 13 14 4 6 12 10 17 16 13 10 13 5 4 21 19
13 14 14 16 17 17 17 19 19 18 18 17 16 14 11 8 10 14 4 5 11 11 10 15 15 14 13 13 16 13 13 13 7 9 11 9 16 12 11 12 13 15 20 21 20
13 14 15 16 17 18 19 19 19 19 18 17 16 13 9 8 10 5 5 6 10 12 16 13 14 14 15 16 18 17 17 14 3 6 9 19 13 9 10 3 17 16 16 18 18
14 14 15 16 19 18 19 20 20 20 19 17 15 11 5 8 5 6 10 8 8 12 14 13 14 15 15 18 18 16 17 12 8 5 7 8 14 8 10 16 16 16 17 17 17
13 14 14 16 18 20 21 20 20 19 19 17 14 8 8 10 9 10 11 8 11 10 13 13 12 13 16 18 17 15 17 9 3 4 12 7 14 12 13 20 16 16 17 17 16
14 15 16 17 18 20 21 21 20 18 17 17 11 4 8 16 15 14 14 13 13 13 14 13 10 14 15 21 16 14 15 19 7 8 7 12 8 9 17 20 18 16 16 16 16
13 14 17 18 21 21 23 23 20 17 16 14 8 7 13 18 11 13 13 13 14 15 13 13 15 12 17 15 19 18 11 17 14 8 8 9 12 13 18 19 19 17 15 16 14
14 15 17 18 21 23 25 27 22 18 14 10 5 9 10 3 4 13 15 14 14 11 14 10 12 12 12 15 15 16 14 15 18 15 14 9 15 14 6 18 18 17 15 15 15
13 15 17 19 21 23 26 28 25 18 9 5 7 9 17 5 11 13 12 14 10 10 10 7 5 11 13 13 14 13 15 18 20 20 10 14 12 18 17 15 17 14 14 15 14
13 14 17 19 22 23 27 31 16 3 6 9 12 10 15 13 14 13 11 11 10 11 10 9 8 13 14 13 13 12 16 18 15 12 11 15 13 23 23 17 18 17 15 14 15
13 13 16 18 22 24 17 14 7 5 8 17 9 14 8 8 10 11 12 10 11 12 14 15 13 15 18 18 18 18 20 19 16 15 15 11 12 11 7 13 14 18 18 17 15
12 14 15 18 21 23 12 9 7 9 13 19 22 20 20 10 11 14 15 12 15 15 16 14 16 18 17 18 18 20 20 12 16 18 9 9 14 12 26 18 13 13 18 18 18
12 13 15 17 20 15 13 2 8 10 9 17 21 22 17 9 14 18 17 17 15 16 16 18 19 19 17 16 8 11 13 12 17 12 3 3 12 14 16 14 13 11 7 16 18
12 13 13 17 8 12 11 3 7 6 7 16 16 15 23 17 17 16 18 17 14 16 18 19 19 7 12 8 11 14 15 17 18 16 11 11 11 13 17 12 10 13 13 19 14
12 12 12 4 14 10 7 8 8 4 8 18 16 12 15 21 9 20 19 19 19 15 13 13 13 14 11 11 12 14 14 11 15 16 17 13 10 12 9 13 18 10 14 13 14
12 10 10 10 8 16 8 9 7 8 9 11 11 14 18 19 22 16 14 19 15 16 12 16 5 7 10 14 12 8 9 12 11 10 14 18 17 15 13 13 9 13 12 15 16
12 10 7 11 9 12 7 8 8 10 9 10 15 16 18 16 21 16 18 19 13 11 13 13 13 9 12 15 15 7 12 8 10 12 12 17 19 15 17 15 13 12 16 11 11
11 8 11 12 13 12 8 9 11 13 20 2 14 19 17 18 17 15 17 15 18 15 12 13 16 20 12 15 10 12 13 11 13 12 10 11 17 16 19 15 8 6 5 5 8
5 10 11 13 16 11 8 12 12 16 5 7 6 10 18 19 15 15 19 18 18 17 15 11 9 10 13 9 13 12 13 15 15 16 14 13 18 13 2 7 7 4 8 12 11
7 10 15 18 16 8 10 17 19 21 6 7 8 13 13 17 16 17 17 18 17 19 15 13 7 9 9 8 13 14 12 7 6 10 12 12 14 6 18 5 1 7 5 4 5
7 8 13 22 10 9 13 18 20 20 4 6 13 16 16 13 14 12 12 9 10 7 11 10 6 2 8 8 13 10 11 11 11 9 10 10 4 9 9 4 4 9 11 10 11
6 10 11 13 11 11 14 21 20 17 10 10 9 17 15 9 16 15 17 10 9 3 9 9 4 9 11 10 13 6 5 2 5 9 9 11 14 10 13 14 13 11 13 2 7
5 10 7 12 12 13 19 21 21 11 8 11 9 13 12 8 9 13 12 10 8 5 3 6 4 7 11 5 8 8 8 9 6 3 9 9 6 9 16 16 13 16 15 16 4
6 5 7 9 13 18 17 19 19 7 16 14 12 11 8 11 3 8 12 7 11 10 4 4 2 7 3 9 4 10 11 5 8 5 9 11 9 16 21 17 16 18 21 31 21
6 5 12 13 14 15 17 14 15 12 16 15 9 7 12 10 8 13 15 11 11 5 5 2 4 8 6 10 11 5 17 9 10 16 8 13 12 18 16 16 15 12 23 5 19
7 3 11 12 18 19 13 14 17 19 15 13 10 15 13 10 12 13 14 12 13 9 7 3 3 6 10 12 13 14 13 13 12 13 13 8 13 17 16 17 17 18 16 14 15
5 10 7 5 17 16 13 14 11 12 12 18 18 14 11 11 13 14 11 14 8 10 7 4 3 5 8 13 14 8 5 7 4 15 16 13 14 17 20 17 16 15 14 13 13
Wind_Direction
333 330 328 326 325 322 322 319 318 320 322 316 314 311 308 308 293 236 245 240 178 176 228 211 222 235 244 254 249 255 272 289 136 99 114 151 110 82 100 129 70 45 168 150 150
329 327 330 325 322 321 319 315 315 320 318 319 315 314 314 314 273 258 207 107 137 157 202 210 213 218 226 236 245 242 261 255 349 24 72 126 103 115 142 141 115 90 105 130 162
323 325 326 324 321 321 317 316 316 318 316 319 316 317 312 292 277 189 143 153 156 179 218 215 227 220 230 236 235 231 254 318 87 21 320 112 136 129 182 177 137 135 139 149 167
318 323 323 321 318 318 314 314 316 315 315 317 317 314 308 254 316 89 156 163 155 196 239 244 241 228 236 236 240 240 257 289 60 109 260 260 125 116 76 92 109 136 145 158 170
313 314 318 317 315 315 312 312 312 310 311 312 314 316 280 248 248 136 143 141 165 192 234 224 224 242 234 247 239 241 265 255 271 220 261 259 148 128 118 107 121 137 149 162 175
311 317 318 317 314 313 310 310 306 305 307 306 308 322 261 270 107 144 155 161 184 208 234 219 219 223 240 255 245 238 249 275 228 229 224 269 159 167 122 127 136 149 160 165 179
305 312 316 315 314 314 310 307 303 299 299 298 299 278 275 257 129 167 163 186 216 211 232 226 238 221 241 284 279 256 230 254 273 225 242 238 262 175 142 141 147 161 167 168 185
304 310 313 313 315 314 311 306 300 291 291 285 280 271 265 140 233 170 185 198 216 224 254 238 250 276 241 247 266 265 259 260 236 234 226 208 245 19 146 155 158 169 171 172 189
301 306 308 311 314 313 308 302 295 280 246 272 246 220 265 118 216 197 200 214 204 227 243 290 229 244 244 245 255 234 238 232 261 210 221 202 238 142 201 177 163 174 173 181 181
290 299 306 310 311 309 311 297 293 214 209 234 258 264 244 221 193 190 201 231 197 212 208 221 221 229 235 222 233 216 226 257 243 178 200 242 230 190 200 181 171 170 185 190 184
288 296 303 305 306 308 329 312 296 180 262 259 293 234 275 187 124 197 197 205 202 207 214 204 217 217 223 229 236 259 220 225 258 245 191 223 254 144 295 189 196 177 180 186 198
278 289 298 302 305 309 292 298 26 306 298 277 265 246 267 195 196 210 189 211 199 209 211 216 228 238 228 236 220 249 266 286 277 274 216 191 250 247 183 196 208 213 186 188 185
270 282 294 302 312 289 248 346 297 301 276 284 237 224 226 230 233 200 190 213 203 218 213 235 225 214 247 232 260 268 272 266 265 285 66 226 260 283 267 189 190 215 219 206 190
261 277 293 313 284 285 279 24 315 353 273 243 205 212 210 204 231 228 191 213 228 220 228 224 255 245 226 240 238 244 243 245 268 269 259 185 251 256 266 245 210 199 194 232 219
256 272 290 286 315 280 14 319 337 260 278 141 171 192 185 198 177 219 178 219 238 216 238 233 234 251 238 237 234 262 283 281 238 259 274 236 216 248 253 232 222 212 256 267 238
252 268 307 257 214 256 292 309 273 232 241 150 141 183 179 204 230 180 190 217 235 255 230 260 301 274 223 249 255 278 272 267 281 268 252 250 266 263 256 230 245 196 225 249 253
245 260 265 304 251 332 314 272 228 239 236 149 163 182 196 193 211 180 196 205 222 226 235 226 237 220 252 238 239 213 251 242 228 228 246 241 242 250 257 266 236 208 215 259 254
244 261 246 241 274 261 277 245 243 228 249 16 181 171 192 191 216 164 191 200 220 234 250 218 215 209 198 249 218 209 241 250 257 244 274 310 235 252 235 238 57 27 328 335 319
254 245 239 241 235 251 245 229 220 251 301 169 245 196 194 185 206 181 203 214 201 228 244 281 223 147 183 207 265 257 208 234 268 284 284 283 288 284 100 184 189 158 246 238 240
237 239 236 221 212 214 232 243 246 254 347 318 259 217 206 192 195 189 196 211 217 203 227 272 298 147 186 231 249 256 276 288 246 273 276 278 287 31 26 49 250 239 320 144 95
237 232 225 212 163 222 227 232 240 264 289 253 271 299 250 192 185 191 210 198 204 151 189 247 269 280 130 208 239 213 250 258 285 305 312 299 74 49 23 184 305 322 343 68 63
247 224 170 153 193 217 225 233 255 281 171 242 263 280 296 266 184 219 230 153 171 180 215 225 304 259 219 220 225 296 335 10 257 262 262 281 291 325 37 4 11 357 347 100 98
242 226 181 189 207 214 223 238 236 238 263 215 244 262 313 288 210 106 86 99 138 167 68 202 220 264 264 227 234 254 267 266 260 12 282 293 300 355 45 24 14 344 4 340 343
272 199 175 205 231 229 218 215 228 192 241 233 233 258 259 272 249 95 133 141 165 86 51 334 252 271 284 335 209 318 326 325 260 228 281 266 320 12 32 4 10 12 2 326 51
244 172 244 185 210 233 248 234 213 205 230 232 224 237 241 244 238 136 216 152 128 95 155 9 254 268 270 225 185 209 262 257 250 255 249 303 28 29 6 359 358 17 121 317 71
297 342 221 217 202 210 219 258 198 211 190 225 216 222 230 231 237 263 153 172 154 162 161 103 236 304 298 298 280 273 263 276 277 283 289 279 50 4 4 355 10 27 54 56 60
250 266 257 212 198 202 212 220 233 220 190 207 203 234 232 214 63 75 69 314 229 163 146 160 313 299 280 299 292 251 338 271 324 41 25 11 26 8 354 18 6 25 65 65 64